This is the latest recevied weather packets stored in our database for station/object 4S6DRJ-13. If no packets are shown the sender has not sent any weather packets the latest 10 day(s).
| Time | Temp. | Humidity | Pressure | Rain* | Wind** | Luminosity | Snow |
|---|---|---|---|---|---|---|---|
| 1787854995 | 27.22° C | 86% | 1010.8 hPa | 0 mm | 0 m/s | 0 W/m² | - |
| 1787854933 | 27.22° C | 86% | 1010.9 hPa | 0 mm | 0 m/s | 0 W/m² | - |
| 1787854872 | 27.22° C | 86% | 1010.7 hPa | 0 mm | 0 m/s | 0 W/m² | - |
| 1787854812 | 27.22° C | 86% | 1010.9 hPa | 0 mm | 0.45 m/s, 252° | 0 W/m² | - |
| 1787854752 | 27.22° C | 86% | 1010.8 hPa | 0 mm | 0.45 m/s, 223° | 0 W/m² | - |
| 1787854690 | 27.22° C | 86% | 1010.8 hPa | 0 mm | 0.89 m/s, 261° | 0 W/m² | - |
| 1787854629 | 27.22° C | 86% | 1010.8 hPa | 0 mm | 0.45 m/s, 247° | 0 W/m² | - |
| 1787854568 | 27.22° C | 86% | 1010.6 hPa | 0 mm | 0 m/s | 0 W/m² | - |
| 1787854507 | 27.22° C | 86% | 1010.8 hPa | 0 mm | 0 m/s | 0 W/m² | - |
| 1787854446 | 27.22° C | 86% | 1011 hPa | 0 mm | 0 m/s | 0 W/m² | - |
| 1787854385 | 27.22° C | 86% | 1010.7 hPa | 0 mm | 0.45 m/s, 215° | 0 W/m² | - |
| 1787854324 | 27.22° C | 86% | 1010.7 hPa | 0 mm | 0.89 m/s, 263° | 0 W/m² | - |
| 1787854263 | 27.22° C | 86% | 1010.8 hPa | 0 mm | 0 m/s | 0 W/m² | - |
| 1787854203 | 27.22° C | 86% | 1010.8 hPa | 0 mm | 0.89 m/s, 212° | 0 W/m² | - |
| 1787854141 | 27.22° C | 86% | 1010.8 hPa | 0 mm | 0 m/s | 0 W/m² | - |
| 1787854080 | 27.22° C | 86% | 1010.7 hPa | 0 mm | 0.45 m/s, 221° | 0 W/m² | - |
| 1787854019 | 27.22° C | 86% | 1010.6 hPa | 0 mm | 1.34 m/s, 203° | 0 W/m² | - |
| 1787853958 | 27.22° C | 86% | 1010.6 hPa | 0 mm | 1.34 m/s, 199° | 0 W/m² | - |
| 1787853897 | 27.22° C | 86% | 1010.8 hPa | 0 mm | 0.89 m/s, 214° | 0 W/m² | - |
| 1787853836 | 27.22° C | 86% | 1010.7 hPa | 0 mm | 0.89 m/s, 305° | 0 W/m² | - |
| 1787853775 | 27.22° C | 86% | 1010.6 hPa | 0 mm | 0.89 m/s, 344° | 0 W/m² | - |
| 1787853714 | 27.22° C | 86% | 1010.8 hPa | 0 mm | 0.89 m/s, 126° | 0 W/m² | - |
| 1787853654 | 27.22° C | 86% | 1011.1 hPa | 0 mm | 1.34 m/s, 197° | 0 W/m² | - |
| 1787853592 | 27.22° C | 86% | 1010.8 hPa | 0 mm | 1.79 m/s, 176° | 0 W/m² | - |
| 1787853531 | 27.22° C | 86% | 1010.7 hPa | 0 mm | 1.34 m/s, 239° | 0 W/m² | - |
* Rain latest hour (hover to see other rain measurements)
** Current wind speed in m/s (hover to see current wind gust speed)